Location: Fluertsh�userhof
(48.7537°N, 10.3850°E)
Time: 05:13:19
(UTC+00:00)

NOSS 2-2 (C) - Pass Details

Date: 18 September 2020
Orbit: 468 x 1740 km, 63.3° (Epoch: 19 October)

Event Time Altitude Azimuth Distance (km) Brightness Sun altitude
Rises 18:15:22 0° 194° (SSW) 2,509 6.7 -9.2°
Reaches altitude 10° 18:17:35 10° 183° (S) 1,622 5.6 -9.5°
Maximum altitude 18:20:41 30° 120° (ESE) 885 3.8 -10.0°
Drops below altitude 10° 18:24:03 10° 58° (ENE) 1,771 5.5 -10.6°
Sets 18:26:35 0° 48° (NE) 2,788 6.6 -11.0°
